This is the latest recevied weather packets stored in our database for station/object K3SV. If no packets are shown the sender has not sent any weather packets the latest 10 day(s).
| Time | Temp. | Humidity | Pressure | Rain* | Wind** | Luminosity | Snow |
|---|---|---|---|---|---|---|---|
| 1777420557 | 26.67° C | 65% | 1017.1 hPa | 0 mm | - | 6 W/m² | - |
| 1777420253 | 27.22° C | 64% | 1017.3 hPa | 0 mm | - | 8 W/m² | - |
| 1777419948 | 27.22° C | 64% | 1017 hPa | 0 mm | - | 12 W/m² | - |
| 1777419646 | 27.22° C | 63% | 1017.2 hPa | 0 mm | - | 15 W/m² | - |
| 1777419344 | 27.78° C | 63% | 1017.4 hPa | 0 mm | - | 19 W/m² | - |
| 1777419043 | 27.78° C | 63% | 1017.1 hPa | 0 mm | - | 21 W/m² | - |
| 1777418742 | 27.78° C | 62% | 1017.1 hPa | 0 mm | - | 26 W/m² | - |
| 1777418439 | 27.78° C | 62% | 1017.2 hPa | 0 mm | - | 30 W/m² | - |
| 1777418136 | 27.78° C | 61% | 1017 hPa | 0 mm | - | 34 W/m² | - |
| 1777417832 | 28.33° C | 60% | 1017 hPa | 0 mm | - | 36 W/m² | - |
| 1777417532 | 28.33° C | 60% | 1017.1 hPa | 0 mm | - | 40 W/m² | - |
| 1777417229 | 28.89° C | 59% | 1017.1 hPa | 0 mm | - | 44 W/m² | - |
| 1777416925 | 28.89° C | 58% | 1016.9 hPa | 0 mm | - | 55 W/m² | - |
| 1777416620 | 29.44° C | 56% | 1016.8 hPa | 0 mm | - | 61 W/m² | - |
| 1777416316 | 29.44° C | 54% | 1016.6 hPa | 0 mm | - | 53 W/m² | - |
| 1777416015 | 29.44° C | 53% | 1016.5 hPa | 0 mm | - | 50 W/m² | - |
| 1777415712 | 29.44° C | 52% | 1016.8 hPa | 0 mm | - | 54 W/m² | - |
| 1777415408 | 30° C | 51% | 1016.9 hPa | 0 mm | - | 62 W/m² | - |
| 1777415107 | 30.56° C | 50% | 1016.8 hPa | 0 mm | - | 77 W/m² | - |
| 1777414802 | 31.11° C | 49% | 1016.8 hPa | 0 mm | - | 209 W/m² | - |
| 1777414498 | 31.11° C | 49% | 1016.6 hPa | 0 mm | - | 259 W/m² | - |
| 1777414197 | 31.67° C | 47% | 1016.8 hPa | 0 mm | - | 117 W/m² | - |
| 1777413893 | 31.11° C | 47% | 1016.7 hPa | 0 mm | - | 257 W/m² | - |
| 1777413588 | 30.56° C | 48% | 1016.8 hPa | 0 mm | - | 268 W/m² | - |
| 1777413285 | 30.56° C | 47% | 1016.9 hPa | 0 mm | - | 94 W/m² | - |
* Rain latest hour (hover to see other rain measurements)
** Current wind speed in m/s (hover to see current wind gust speed)